DW8913 Sea Isle City NJ US current weather conditions

sailwx.info

Wind from 219

Air temperature 11.1° C
Dewpoint 10.3° C

Last reported at 2019-Dec-09 17:03 UTC.
Time now 2019-Dec-09 17:43 UTC

Location: N 39°09' W 074°42'.
View on Google Maps.

See reports from other nearby stations

  
Tides and Currents Weather Stations Pressure Air Temp Water Temp Dewpoint Dewpoint Depression Visibility Wind Speed Wind Dir Waves Ship Positions
date/time (UTC)wind fromknots sea level pressurealtimeterstation pressurevisibilityair tempwater tempwave heightnotes
2019-Dec-09 17:03 219 11.1
2019-Dec-09 16:45 118 11.1
2019-Dec-09 16:32 131 11.1
2019-Dec-09 16:16 170 12.8
2019-Dec-09 16:00 233 0 gusting 8 12.8
2019-Dec-09 15:31 181 12.2
2019-Dec-09 15:16 214 12.2
2019-Dec-09 15:00 253 2 gusting 14 12.2
2019-Dec-09 14:46 229 1 gusting 12 12.2
2019-Dec-09 14:30 224 0 gusting 12 12.2
2019-Dec-09 14:17 214 5 gusting 16 12.8
2019-Dec-09 14:01 193 7 gusting 17 12.8
2019-Dec-09 13:45 220 6 gusting 19 12.8
2019-Dec-09 13:31 136 4 gusting 13 11.7
2019-Dec-09 13:16 108 0 gusting 8 11.1
2019-Dec-09 13:00 114 10.0
2019-Dec-09 12:46 160 10.0
2019-Dec-09 12:30 221 11.7
2019-Dec-09 12:16 207 11.7
2019-Dec-09 12:00 167 11.7
2019-Dec-09 11:31 352 0 gusting 7 11.1
2019-Dec-09 11:15 150 1 gusting 6 10.6
2019-Dec-09 10:46 088 10.6
2019-Dec-09 10:30 278 10.6
2019-Dec-09 10:17 095 10.6
2019-Dec-09 10:00 064 9.4
2019-Dec-09 09:45 059 8.9
2019-Dec-09 09:31 013 8.3
2019-Dec-09 09:16 045 7.8
2019-Dec-09 08:46 339 6.7
2019-Dec-09 08:30 359 6.7
2019-Dec-09 08:17 336 6.7
2019-Dec-09 08:00 006 6.7
2019-Dec-09 07:45 357 6.7
2019-Dec-09 07:32 348 6.7
2019-Dec-09 07:15 008 6.7
2019-Dec-09 07:00 340 7.2
2019-Dec-09 06:47 333 7.8
2019-Dec-09 06:30 333 7.8
2019-Dec-09 06:01 288 7.2
2019-Dec-09 05:45 288 7.8
2019-Dec-09 05:16 052 8.3
2019-Dec-09 05:00 052 8.3
2019-Dec-09 04:30 056 8.3
2019-Dec-09 04:15 054 8.3
2019-Dec-09 04:01 057 8.3
2019-Dec-09 03:45 063 7.8
2019-Dec-09 03:32 060 7.8
2019-Dec-09 03:15 114 8.3
2019-Dec-09 02:48 114 8.3
2019-Dec-09 02:30 114 8.3
2019-Dec-09 02:00 118 8.3
2019-Dec-09 01:31 136 7.8
2019-Dec-09 01:16 107 7.8
2019-Dec-09 01:00 054 7.8
2019-Dec-09 00:30 097 7.8
2019-Dec-09 00:15 144 7.8
2019-Dec-09 00:02 127 7.8
2019-Dec-08 23:46 130 7.8
2019-Dec-08 23:16 127 7.8
2019-Dec-08 23:00 116 7.8
2019-Dec-08 22:47 139 7.8
2019-Dec-08 22:31 150 7.8
2019-Dec-08 22:15 164 7.8
2019-Dec-08 22:01 131 7.2
2019-Dec-08 21:45 108 7.2
2019-Dec-08 21:15 153 7.2
2019-Dec-08 21:00 128 0 gusting 6 7.2
2019-Dec-08 20:32 144 7.2
2019-Dec-08 20:15 127 7.2
2019-Dec-08 20:02 090 7.2
2019-Dec-08 19:45 070 7.2
2019-Dec-08 19:30 139 7.2
2019-Dec-08 19:16 202 7.2
2019-Dec-08 19:01 178 7.2
2019-Dec-08 18:45 163 7.2
2019-Dec-08 18:31 155 7.2
2019-Dec-08 18:15 125 6.7
2019-Dec-08 18:01 107 6.7
2019-Dec-08 17:45 139 6.7
2019-Dec-08 17:16 124 6.1
2019-Dec-08 17:00 131 6.1
2019-Dec-08 16:31 097 6.1
2019-Dec-08 16:15 094 5.6
2019-Dec-08 16:01 086 5.6
2019-Dec-08 15:46 054 0 gusting 10 5.6
2019-Dec-08 15:16 089 5.0
2019-Dec-08 15:00 082 5.0
2019-Dec-08 14:31 053 4.4
2019-Dec-08 14:15 054 3.9
2019-Dec-08 14:01 355 2.8
2019-Dec-08 13:45 358 1.7
2019-Dec-08 13:16 335 -0.0
2019-Dec-08 13:00 001 -0.6
2019-Dec-08 12:47 346 -1.1
2019-Dec-08 12:30 338 -1.1
2019-Dec-08 12:00 354 -1.7
2019-Dec-08 11:45 342 -1.7
2019-Dec-08 11:31 329 -1.7
2019-Dec-08 11:15 003 -1.7
2019-Dec-08 11:00 342 -1.7
2019-Dec-08 10:47 354 -1.7
2019-Dec-08 10:31 344 -1.7
2019-Dec-08 10:02 355 -1.7
2019-Dec-08 09:46 342 -1.7
2019-Dec-08 09:17 349 -1.7
2019-Dec-08 09:00 340 -1.7
2019-Dec-08 08:31 347 -1.7
2019-Dec-08 08:15 340 -1.7
2019-Dec-08 08:01 338 -1.7
2019-Dec-08 07:46 321 -1.1
2019-Dec-08 07:30 345 -1.1
2019-Dec-08 07:16 342 -1.1
2019-Dec-08 07:01 319 -1.1
2019-Dec-08 06:46 317 -0.6
2019-Dec-08 06:32 340 -0.6
2019-Dec-08 06:15 076 -0.6
2019-Dec-08 05:46 343 -0.6
2019-Dec-08 05:30 359 -0.6
2019-Dec-08 05:17 351 -0.6
2019-Dec-08 05:00 029 -1.1
2019-Dec-08 04:45 013 -1.1
2019-Dec-08 04:31 327 -1.1
2019-Dec-08 04:16 325 -0.6
2019-Dec-08 03:46 335 -0.6
2019-Dec-08 03:30 342 -0.6
2019-Dec-08 03:01 324 -0.6
2019-Dec-08 02:46 316 -0.0
2019-Dec-08 02:30 316 -0.0
2019-Dec-08 02:16 325 -0.0
2019-Dec-08 02:01 311 -0.0
2019-Dec-08 01:31 305 -0.0
2019-Dec-08 01:15 311 -0.0
2019-Dec-08 01:01 309 0.6
2019-Dec-08 00:46 318 0.6
2019-Dec-08 00:30 313 0.6
2019-Dec-08 00:01 312 1.1
2019-Dec-07 23:45 311 1.7
2019-Dec-07 23:32 300 1.7
2019-Dec-07 23:15 307 1.7
2019-Dec-07 23:00 302 2.2
2019-Dec-07 22:46 307 2.2
2019-Dec-07 22:30 304 2.8
2019-Dec-07 22:02 314 3.3
2019-Dec-07 21:45 316 3.3
2019-Dec-07 21:16 314 4.4
2019-Dec-07 21:01 319 4.4
2019-Dec-07 20:31 305 5.0
2019-Dec-07 20:15 340 5.0
2019-Dec-07 20:01 342 5.0
2019-Dec-07 19:45 274 5.0
2019-Dec-07 19:30 320 5.0
2019-Dec-07 19:16 295 5.0
2019-Dec-07 19:00 308 5.0
2019-Dec-07 18:45 297 5.0
2019-Dec-07 18:31 323 0 gusting 6 4.4
2019-Dec-07 18:15 349 5.0
2019-Dec-07 18:00 327 5.0
2019-Dec-07 17:46 346 4.4
2019-Dec-07 17:31 352 5.0
2019-Dec-07 17:15 292 4.4
2019-Dec-07 17:02 325 4.4